TimeCDT,TemperatureF,Dew PointF,Humidity,Sea Level PressureIn,VisibilityMPH,Wind Direction,Wind SpeedMPH,Gust SpeedMPH,PrecipitationIn,Events,Conditions,WindDirDegrees,DateUTC
12:53 AM,41.0,37.9,89,29.74,3.0,WNW,4.6,-,N/A,,Scattered Clouds,290,2013-11-02 05:53:00
1:53 AM,39.9,37.9,93,29.75,3.0,WNW,5.8,-,N/A,,Mostly Cloudy,290,2013-11-02 06:53:00
2:53 AM,41.0,37.9,89,29.77,3.0,WNW,6.9,-,N/A,,Mostly Cloudy,290,2013-11-02 07:53:00
3:53 AM,39.9,37.9,93,29.78,3.0,NW,5.8,-,N/A,,Partly Cloudy,310,2013-11-02 08:53:00
4:25 AM,37.4,35.6,93,29.77,2.5,WNW,5.8,-,N/A,,Clear,290,2013-11-02 09:25:00
4:53 AM,37.9,36.0,93,29.79,2.5,WNW,5.8,-,N/A,,Partly Cloudy,290,2013-11-02 09:53:00
5:45 AM,39.2,37.4,93,29.79,3.0,WNW,9.2,-,N/A,,Mostly Cloudy,300,2013-11-02 10:45:00
5:53 AM,39.0,37.0,93,29.81,3.0,NW,8.1,-,N/A,,Mostly Cloudy,310,2013-11-02 10:53:00
6:27 AM,37.4,35.6,93,29.81,2.5,WNW,5.8,-,N/A,,Partly Cloudy,290,2013-11-02 11:27:00
6:51 AM,39.2,37.4,93,29.82,3.0,WNW,6.9,-,N/A,,Mostly Cloudy,300,2013-11-02 11:51:00
6:53 AM,39.0,37.0,93,29.84,3.0,WNW,8.1,-,N/A,,Mostly Cloudy,300,2013-11-02 11:53:00
7:00 AM,39.2,37.4,93,29.83,3.0,WNW,8.1,-,N/A,,Overcast,300,2013-11-02 12:00:00
7:25 AM,39.2,37.4,93,29.84,1.5,WNW,5.8,-,N/A,,Overcast,300,2013-11-02 12:25:00
7:45 AM,39.2,37.4,93,29.85,1.5,WNW,8.1,-,N/A,,Overcast,300,2013-11-02 12:45:00
7:53 AM,41.0,37.9,89,29.86,1.5,WNW,8.1,-,0.00,Rain,Light Rain,300,2013-11-02 12:53:00
8:00 AM,41.0,37.4,87,29.85,2.0,WNW,8.1,-,0.00,Rain,Light Rain,290,2013-11-02 13:00:00
8:07 AM,41.0,37.4,87,29.86,1.5,WNW,6.9,-,0.00,,Overcast,300,2013-11-02 13:07:00
8:35 AM,41.0,39.2,93,29.87,1.5,WNW,6.9,-,0.00,,Overcast,300,2013-11-02 13:35:00
8:53 AM,42.1,39.0,89,29.89,1.8,WNW,6.9,-,0.00,,Overcast,300,2013-11-02 13:53:00
9:03 AM,42.8,39.2,87,29.88,2.0,WNW,6.9,-,N/A,,Overcast,300,2013-11-02 14:03:00
9:10 AM,42.8,39.2,87,29.88,2.0,WNW,8.1,-,N/A,,Overcast,300,2013-11-02 14:10:00
9:20 AM,42.8,39.2,87,29.89,2.0,WNW,8.1,-,N/A,,Overcast,300,2013-11-02 14:20:00
9:29 AM,42.8,39.2,87,29.89,2.5,WNW,8.1,-,N/A,,Overcast,300,2013-11-02 14:29:00
9:45 AM,42.8,39.2,87,29.89,2.5,NW,5.8,-,N/A,,Overcast,310,2013-11-02 14:45:00
9:53 AM,43.0,39.9,89,29.91,3.0,WNW,8.1,-,N/A,,Overcast,300,2013-11-02 14:53:00
10:04 AM,42.8,39.2,87,29.90,3.0,NW,9.2,-,N/A,,Overcast,310,2013-11-02 15:04:00
10:48 AM,44.6,41.0,87,29.92,4.0,WNW,6.9,-,N/A,,Overcast,300,2013-11-02 15:48:00
10:53 AM,45.0,41.0,86,29.94,4.0,NW,5.8,-,N/A,,Overcast,320,2013-11-02 15:53:00
11:31 AM,46.4,39.2,76,29.93,10.0,NW,8.1,-,N/A,,Overcast,310,2013-11-02 16:31:00
11:53 AM,46.9,39.9,77,29.96,10.0,NNW,5.8,-,N/A,,Overcast,330,2013-11-02 16:53:00
12:02 PM,46.4,39.2,76,29.94,10.0,NW,8.1,-,N/A,,Overcast,320,2013-11-02 17:02:00
12:53 PM,48.0,37.0,66,29.96,10.0,NW,9.2,-,N/A,,Overcast,310,2013-11-02 17:53:00
1:53 PM,46.9,36.0,66,29.97,10.0,NNW,8.1,-,N/A,,Overcast,330,2013-11-02 18:53:00
2:53 PM,46.9,36.0,66,29.99,10.0,NNW,6.9,-,N/A,,Overcast,340,2013-11-02 19:53:00
3:53 PM,46.9,34.0,61,30.01,10.0,NW,6.9,-,N/A,,Overcast,320,2013-11-02 20:53:00
4:53 PM,45.0,36.0,71,30.04,10.0,NW,5.8,-,N/A,,Overcast,320,2013-11-02 21:53:00
5:53 PM,44.1,36.0,73,30.07,10.0,North,3.5,-,N/A,,Overcast,360,2013-11-02 22:53:00
6:53 PM,43.0,37.0,80,30.09,10.0,NNW,3.5,-,N/A,,Overcast,340,2013-11-02 23:53:00
7:34 PM,42.8,37.4,81,30.09,10.0,NNW,3.5,-,N/A,,Overcast,340,2013-11-03 00:34:00
7:53 PM,43.0,37.0,80,30.12,10.0,North,5.8,-,N/A,,Overcast,10,2013-11-03 00:53:00
8:53 PM,42.1,36.0,79,30.13,7.0,North,3.5,-,0.01,Rain,Light Rain,350,2013-11-03 01:53:00
9:53 PM,41.0,37.0,86,30.15,10.0,WNW,4.6,-,0.00,,Overcast,290,2013-11-03 02:53:00
10:53 PM,39.9,37.0,89,30.15,10.0,Calm,Calm,-,N/A,,Overcast,0,2013-11-03 03:53:00
11:53 PM,41.0,37.0,86,30.16,10.0,NW,3.5,-,N/A,,Overcast,320,2013-11-03 04:53:00